Regional Weather Roundup
Issued by NWS Green Bay, WI

Home | Current Version | Previous Version | Text Only | Print | Product List | Glossary On
Versions: 1 2 3 4 5 6 7 8 9 10 11 12 13 14 15 16 17 18 19 20 21 22 23 24 25 26 27 28 29 30 31 32 33 34 35 36 37 38 39 40 41 42 43 44 45 46 47 48 49 50
000
ASUS43 KGRB 312000
RWRGRB

NORTH-CENTRAL AND NORTHEAST WISCONSIN REGIONAL WEATHER ROUNDUP
NATIONAL WEATHER SERVICE GREEN BAY WI
300 PM CDT MON AUG 31 2015

WIZ005-009-010>012-018-019-312100-
NORTH CENTRAL WISCONSIN

CITY           SKY/WX    TMP DP  RH WIND       PRES   REMARKS
IRONWOOD       SUNNY     82  64  54 S9        29.88F
MANITOWISH WTR NOT AVBL
ARBOR VITAE    NOT AVBL
EAGLE RIVER    NOT AVBL
LAND O LAKES   NOT AVBL
RHINELANDER    SUNNY     78  65  63 S10       30.00F
PHILLIPS       SUNNY     76  67  74 SW9       29.98F
ANTIGO         NOT AVBL
TOMAHAWK       NOT AVBL
MERRILL        MOSUNNY   76  68  76 S8        30.01F
$$

WIZ013-073-312100-
NORTHEAST WISCONSIN

CITY           SKY/WX    TMP DP  RH WIND       PRES   REMARKS
IRON MOUNTAIN  SUNNY     84  65  52 SW9       29.95F
MARINETTE      SUNNY     75  66  73 SW13      29.97F
$$

WIZ017-030-035>037-045-312100-
CENTRAL WISCONSIN

CITY           SKY/WX    TMP DP  RH WIND       PRES   REMARKS
MEDFORD        NOT AVBL
WAUSAU         MOSUNNY   77  66  68 S8        30.00F
MOSINEE        PTSUNNY   75  68  78 SW12      30.02F
MARSHFIELD     CLOUDY    76  66  71 S7        30.01F
WISC RAPIDS    MOSUNNY   79  66  64 SW12      30.03S
STEVENS POINT  NOT AVBL
WAUPACA        NOT AVBL
SHAWANO        NOT AVBL
CLINTONVILLE   PTSUNNY   77  66  69 SW8       30.01F
WAUTOMA        NOT AVBL
$$

WIZ038-039-048-051-312100-
FOX VALLEY

CITY           SKY/WX    TMP DP  RH WIND       PRES   REMARKS
NWS GREEN BAY  MOSUNNY   78  69  73 SW7       30.00F
APPLETON       PTSUNNY   75  64  69 S9        30.01F
OSHKOSH        MOSUNNY   78  67  68 S9        30.02F
FOND DU LAC    SUNNY     79  68  69 S8        30.02F
$$

WIZ022-050-052-312100-
EAST CENTRAL WISCONSIN

CITY           SKY/WX    TMP DP  RH WIND       PRES   REMARKS
EPHRAIM        FAIR      75  66  75 SW6       29.98F
STURGEON BAY   SUNNY     77  64  65 SW9       30.02F
MANITOWOC      NOT AVBL
SHEBOYGAN      SUNNY     77  67  71 SW7       30.03F
$$

LMZ563-521-522-541>543-312100-
LAKESHORE

STATION/POSITION TIME  TEMP    WIND        PRES    VSBY  WAVE
                       AIR SEA DIR/SP/G                  HT/PER
                 (UTC) (F)     (DEG/KT/KT) (MB)    (MI)  (FT/S)
SHEBOYGAN LKSHOR 1900   67     170/ 20/ 21 1017.0F
KEWAUNEE LKSHORE 1900   56     170/ 12/ 13 1015.6F
NORTHPORT PIER   1900   66     140/ 11/ 13 1015.2F
N MID LAKE BUOY  1850   63 65  200/ 16/ 17 1015.8F         2/ 4
CHAMBERS ISLAND  1900   70     170/  8/ 16 1015.6F
MENOMINEE LKSHOR 1900   69     170/ 10/ 14 1014.5F
$$


USA.gov is the U.S. government's official web portal to all federal, state and local government web resources and services.